TimeCDT,TemperatureF,Dew PointF,Humidity,Sea Level PressureIn,VisibilityMPH,Wind Direction,Wind SpeedMPH,Gust SpeedMPH,PrecipitationIn,Events,Conditions,WindDirDegrees,DateUTC
1:15 AM,41.0,35.6,81,30.11,10.0,SSE,8.1,-,0.01,,Overcast,150,2012-10-13 06:15:00
1:35 AM,41.0,37.4,87,30.10,4.0,SSE,8.1,-,0.02,,Overcast,150,2012-10-13 06:35:00
1:55 AM,39.2,39.2,100,30.10,7.0,SSE,9.2,-,0.02,,Overcast,160,2012-10-13 06:55:00
2:15 AM,39.2,39.2,100,30.07,4.0,SE,9.2,-,0.02,,Overcast,140,2012-10-13 07:15:00
2:35 AM,39.2,39.2,100,30.05,10.0,SE,10.4,-,0.03,,Overcast,140,2012-10-13 07:35:00
2:55 AM,39.2,39.2,100,30.07,5.0,SSE,6.9,-,0.05,,Overcast,160,2012-10-13 07:55:00
3:15 AM,39.2,39.2,100,30.04,2.5,SSE,9.2,-,0.01,,Overcast,150,2012-10-13 08:15:00
3:35 AM,39.2,39.2,100,30.03,3.0,SE,9.2,-,0.01,,Overcast,140,2012-10-13 08:35:00
3:55 AM,39.2,39.2,100,30.00,3.0,SE,10.4,-,0.01,,Overcast,140,2012-10-13 08:55:00
4:15 AM,39.2,39.2,100,30.00,5.0,SE,9.2,-,N/A,,Overcast,140,2012-10-13 09:15:00
4:35 AM,41.0,41.0,100,30.00,10.0,SSE,11.5,-,N/A,,Overcast,150,2012-10-13 09:35:00
4:55 AM,41.0,41.0,100,29.99,10.0,SSE,9.2,-,N/A,,Overcast,150,2012-10-13 09:55:00
5:15 AM,42.8,42.8,100,29.98,10.0,SSE,8.1,-,N/A,,Overcast,150,2012-10-13 10:15:00
5:35 AM,41.0,41.0,100,29.97,10.0,SE,10.4,-,N/A,,Overcast,140,2012-10-13 10:35:00
5:55 AM,42.8,42.8,100,29.96,7.0,SE,6.9,-,N/A,,Overcast,140,2012-10-13 10:55:00
6:15 AM,42.8,42.8,100,29.95,10.0,SSE,6.9,-,N/A,,Overcast,150,2012-10-13 11:15:00
6:35 AM,42.8,42.8,100,29.93,7.0,SSE,9.2,-,N/A,,Overcast,150,2012-10-13 11:35:00
6:55 AM,42.8,42.8,100,29.91,4.0,SSE,8.1,-,N/A,,Overcast,150,2012-10-13 11:55:00
7:15 AM,44.6,44.6,100,29.91,7.0,SSE,10.4,-,N/A,,Overcast,160,2012-10-13 12:15:00
7:35 AM,44.6,44.6,100,29.89,7.0,SSE,9.2,-,N/A,,Overcast,160,2012-10-13 12:35:00
7:55 AM,44.6,44.6,100,29.86,4.0,SSE,10.4,-,N/A,,Overcast,150,2012-10-13 12:55:00
8:15 AM,44.6,44.6,100,29.86,0.5,SSE,6.9,-,0.24,,Overcast,160,2012-10-13 13:15:00
8:55 AM,46.4,46.4,100,29.91,0.8,South,12.7,17.3,0.62,,Overcast,170,2012-10-13 13:55:00
9:35 AM,46.4,46.4,100,29.89,1.0,South,10.4,-,0.34,,Overcast,190,2012-10-13 14:35:00
9:55 AM,48.2,48.2,100,29.87,0.5,South,8.1,-,0.51,,Overcast,190,2012-10-13 14:55:00
10:35 AM,50.0,50.0,100,29.82,3.0,SE,6.9,-,0.14,,Overcast,130,2012-10-13 15:35:00
10:55 AM,50.0,50.0,100,29.82,1.8,SE,6.9,-,0.15,,Overcast,130,2012-10-13 15:55:00
11:15 AM,50.0,50.0,100,29.83,2.0,South,4.6,-,N/A,,Overcast,180,2012-10-13 16:15:00
11:35 AM,50.0,50.0,100,29.82,2.0,South,6.9,-,N/A,,Overcast,180,2012-10-13 16:35:00
11:55 AM,51.8,51.8,100,29.82,1.0,South,5.8,-,N/A,,Overcast,180,2012-10-13 16:55:00
12:35 PM,51.8,51.8,100,29.81,0.2,South,4.6,-,N/A,,Overcast,170,2012-10-13 17:35:00
12:55 PM,53.6,53.6,100,29.79,0.2,SSE,5.8,-,N/A,,Overcast,160,2012-10-13 17:55:00
1:15 PM,53.6,53.6,100,29.77,0.2,SSE,5.8,-,N/A,,Overcast,160,2012-10-13 18:15:00
1:35 PM,53.6,53.6,100,29.75,0.2,SSE,5.8,-,N/A,,Overcast,160,2012-10-13 18:35:00
1:55 PM,53.6,53.6,100,29.75,0.8,South,6.9,-,N/A,,Overcast,170,2012-10-13 18:55:00
2:15 PM,55.4,55.4,100,29.75,1.5,South,5.8,-,N/A,,Overcast,180,2012-10-13 19:15:00
2:35 PM,55.4,55.4,100,29.74,1.2,South,6.9,-,N/A,,Overcast,170,2012-10-13 19:35:00
2:55 PM,55.4,55.4,100,29.73,1.2,SSE,6.9,-,N/A,,Overcast,160,2012-10-13 19:55:00
3:35 PM,59.0,59.0,100,29.71,1.8,SSW,10.4,16.1,N/A,,Overcast,200,2012-10-13 20:35:00
3:55 PM,59.0,59.0,100,29.71,1.8,SSW,11.5,17.3,N/A,,Overcast,210,2012-10-13 20:55:00
4:15 PM,59.0,59.0,100,29.72,1.2,SSW,10.4,17.3,N/A,,Overcast,210,2012-10-13 21:15:00
4:35 PM,59.0,59.0,100,29.72,1.2,SSW,9.2,-,N/A,,Overcast,210,2012-10-13 21:35:00
4:55 PM,59.0,59.0,100,29.72,1.0,SSW,10.4,-,N/A,,Overcast,210,2012-10-13 21:55:00
5:15 PM,59.0,59.0,100,29.71,1.0,SSW,10.4,16.1,N/A,,Overcast,210,2012-10-13 22:15:00
5:35 PM,59.0,59.0,100,29.72,0.8,SSW,9.2,-,N/A,,Overcast,210,2012-10-13 22:35:00
5:55 PM,59.0,59.0,100,29.73,1.2,SSW,8.1,-,N/A,,Overcast,210,2012-10-13 22:55:00
6:15 PM,59.0,59.0,100,29.73,1.8,SW,5.8,-,N/A,,Overcast,220,2012-10-13 23:15:00
6:35 PM,59.0,59.0,100,29.73,1.8,SSW,5.8,-,N/A,,Overcast,200,2012-10-13 23:35:00
6:55 PM,59.0,59.0,100,29.74,3.0,South,4.6,-,N/A,,Overcast,190,2012-10-13 23:55:00
7:35 PM,60.8,60.8,100,29.74,3.0,South,5.8,-,N/A,,Overcast,190,2012-10-14 00:35:00
7:55 PM,60.8,60.8,100,29.74,3.0,South,6.9,-,N/A,,Overcast,180,2012-10-14 00:55:00
8:35 PM,60.8,60.8,100,29.73,3.0,SSE,4.6,-,N/A,,Overcast,160,2012-10-14 01:35:00
9:15 PM,60.8,60.8,100,29.71,3.0,SSE,4.6,-,0.01,,Overcast,160,2012-10-14 02:15:00
9:35 PM,60.8,60.8,100,29.72,2.5,South,4.6,-,0.01,,Overcast,170,2012-10-14 02:35:00
9:55 PM,60.8,60.8,100,29.72,2.0,SSE,4.6,-,0.01,,Overcast,150,2012-10-14 02:55:00
10:15 PM,60.8,60.8,100,29.72,1.8,South,5.8,-,N/A,,Overcast,170,2012-10-14 03:15:00
10:35 PM,60.8,60.8,100,29.71,2.0,South,5.8,-,N/A,,Overcast,170,2012-10-14 03:35:00
10:55 PM,60.8,60.8,100,29.71,2.0,South,5.8,-,N/A,,Overcast,180,2012-10-14 03:55:00
11:35 PM,60.8,60.8,100,29.69,2.0,South,5.8,-,N/A,,Overcast,170,2012-10-14 04:35:00